Regional Weather Roundup
Issued by NWS

Home | Current Version | Previous Version | Text Only | Print | Product List | Glossary Off
Versions: 1 2 3 4 5 6 7 8 9 10 11 12 13 14 15 16 17 18 19 20 21 22 23 24 25 26 27 28 29 30 31 32 33 34 35 36 37 38 39 40 41 42 43 44 45 46 47 48 49 50

000
ASUS45 KTFX 180804
RWRMT
MONTANA HOURLY WEATHER ROUNDUP
NATIONAL WEATHER SERVICE GREAT FALLS MT
104 AM MST THU DEC 18 2014

NOTE: "FAIR" INDICATES FEW OR NO CLOUDS BELOW 12000 FEET WITH NO
SIGNIFICANT WEATHER AND/OR OBSTRUCTIONS TO VISIBILITY.

* THESE STATIONS ARE NOT UNDER NWS QUALITY CONTROL. THEY DO NOT
   REPORT WEATHER SUCH AS PRECIPITATION OR FOG.

MTZ001>007-043-180900-
WEST OF THE DIVIDE
CITY           SKY/WX    TMP DP  RH WIND       PRES   REMARKS
KALISPELL      CLOUDY    28  27  96 CALM      29.96F
MISSOULA       CLOUDY    28  25  89 NE3       29.99F
BUTTE          PTCLDY     5   1  83 SE5       29.96F WCI  -5
MULLAN PASS    FOG       27  27 100 CALM      29.89S VSB 1 1/2
* ANACONDA     MOCLDY    27  18  69 SE10       N/A   WCI  18
* ESSEX        N/A       27  26  96 N/A        N/A
* LINCOLN      N/A       19  17  92 NE1        N/A
* LOOKOUT PASS N/A       30  29  96 E1         N/A
* POLSON       N/A       29  28  96 N/A        N/A
* RONAN APT    MOCLDY    30  28  92 N/A        N/A
* SEELEY LAKE  N/A       19  17  92 NE1        N/A
* THOMP F APT  CLOUDY    24  20  85 NE3        N/A
* YAAK HILL    N/A       32  29  89 N/A        N/A
$$

MTZ008-052>055-180900-
SOUTHWEST MONTANA
CITY           SKY/WX    TMP DP  RH WIND       PRES   REMARKS
BOZEMAN        PTCLDY    12   9  88 S3        29.99S
DILLON         PTCLDY    18  12  77 S5        29.99S WCI  11
* W YELLOWSTON CLEAR     17  14  88 N/A        N/A
* THREE FORKS  PTCLDY    12 -11  34 N/A        N/A
* BOULDER HILL N/A       22  15  74 SW10       N/A   WCI  11
* MONIDA PASS  N/A       18  18 100 SE6        N/A   WCI  10
* RAYNOLDS PAS N/A       15  -7  37 E7         N/A   WCI   5
* WHITEHALL    N/A       17  13  84 NW7        N/A   WCI   7
* WISE RIVER   N/A       11   8  88 W2G7       N/A
$$

MTZ009>010-012-014-046-048-049-054-180900-
EAST SLOPES AND CENTRAL MONTANA
CITY           SKY/WX    TMP DP  RH WIND       PRES   REMARKS
CUT BANK       CLOUDY    12  10  92 N5        29.86S WCI   4
GREAT FALLS    MOCLDY    30  23  75 S10       29.88F WCI  21
HELENA         FOG       25  21  85 CALM      29.97F
* EAST GLACIER N/A       34  25  70 W17G24     N/A   WCI  23
* MONARCH      N/A       26  17  69 S9G14      N/A   WCI  17
* PENDROY      N/A       30  22  72 S2         N/A
* SWEET GRASS  N/A       14  14 100 S6         N/A   WCI   5
$$

MTZ011-013-016-021-035-040-045-047-050-051-180900-
NORTH CENTRAL MONTANA
CITY           SKY/WX    TMP DP  RH WIND       PRES   REMARKS
HAVRE          FOG       23  21  92 CALM      29.92F VSB 1/2
LEWISTOWN      CLEAR     28  19  69 CALM      29.90F
* N BAR RANCH  CLEAR     27  19  72 W6        29.90F WCI  20
* CHESTER      N/A       22  20  92 N/A        N/A
* DENTON       N/A       22  18  85 S7         N/A   WCI  13
* JUDITH GAP   N/A       19  17  92 SW1        N/A
* LOMA         N/A       19  18  96 NE2        N/A
$$

MTZ017>020-022>027-061-062-180900-
NORTHEAST MONTANA
CITY           SKY/WX    TMP DP  RH WIND       PRES   REMARKS
GLASGOW        CLOUDY    25  19  78 SE13      29.95F WCI  13
GLENDIVE       CLOUDY    23  19  85 CALM      29.98S
JORDAN         PTCLDY    27  25  92 CALM      29.93F
SIDNEY         CLOUDY    23  18  81 E5        30.03F WCI  16
WOLF POINT     CLOUDY    23  18  81 E6        30.00F WCI  16
* BEAVER HILL  N/A       21  19  92 SE2        N/A
* CIRCLE       N/A       24  21  88 N/A        N/A
* FT PECK      N/A       25  23  92 E9         N/A   WCI  16
* LINDSAY DVD  N/A       20  19  96 SE2        N/A
* NAVAJO       N/A       18  17  96 SW6        N/A   WCI  10
* SACO         N/A       23  21  92 E5         N/A   WCI  16
$$

MTZ028>042-056>058-180900-
SOUTHCENTRAL AND SOUTHEAST MONTANA
CITY           SKY/WX    TMP DP  RH WIND       PRES   REMARKS
BAKER          CLOUDY    23  21  92 SE8       29.95F WCI  14
BILLINGS       CLEAR     25  19  78 SW15      29.94F WCI  13
LIVINGSTON     PTCLDY    32  18  56 W18       29.94S WCI  21
MILES CITY     CLOUDY    25  21  85 E3        29.95F
* LAUREL APT   CLEAR     23  12  63 S7         N/A   WCI  15
* ROUNDUP APT  PTCLDY    27  19  72 S5         N/A   WCI  21
* ALZADA       N/A       15  13  92 E1         N/A
* LAME DEER    N/A       30  27  89 N/A        N/A
* REED POINT   N/A       17  16  96 N/A        N/A
* ROSCOE HILL  N/A       29   8  41 S4         N/A
$$

REGIONAL REPORTS...DAKOTAS
CITY           SKY/WX    TMP DP  RH WIND       PRES   REMARKS
WILLISTON      CLOUDY    19  16  88 SE9       30.03F WCI   8
DICKINSON      CLOUDY    19  16  88 S10       29.99F WCI   8
BEACH          CLOUDY    21  21 100 SE9       29.97F WCI  11
CROSBY         CLOUDY    18  16  92 S10       30.05F WCI   6
WATFORD CITY   CLOUDY    19  18  96 S8        30.02F WCI   9
BISMARCK       MOCLDY    18  12  77 S10       30.15S WCI   6
GRAND FORKS    PTCLDY     3   0  87 CALM      30.29F
FARGO          CLEAR      9   5  84 SE5       30.29S
BUFFALO SD     PTCLDY    23  19  85 S7        29.90F WCI  15
RAPID CITY     FOG       21  19  92 S8        29.99F WCI  11
$$

REGIONAL REPORTS...WYOMING/IDAHO/WASHINGTON
CITY           SKY/WX    TMP DP  RH WIND       PRES   REMARKS
GILLETTE       CLEAR     23  18  81 CALM      29.94S
SHERIDAN       PTCLDY    12  10  92 S3        29.93F
CODY           PTCLDY    23  12  63 NE6       29.93S WCI  16
YELLOWSTONE LA MOCLDY    19  16  88 CALM      30.00F
SALMON         PTCLDY    18   7  62 CALM      30.06S
MULLAN PASS    FOG       27  27 100 CALM      29.89S VSB 1 1/2
SAND POINT     LGT SNOW  32  32 100 CALM      29.98S
SPOKANE        CLOUDY    36  34  92 E6        29.94F WCI  31

$$



USA.gov is the U.S. government's official web portal to all federal, state and local government web resources and services.